Location: Newark
(42.6681°N, 4.0833°W)
Time: 21:20:43
(UTC+00:00)

Envisat - Visible Passes

Search period start: 18 September 2020 00:00
Search period end: 28 September 2020 00:00
Orbit: 764 x 766 km, 98.1° (Epoch: 18 September)

Date Brightness Start Highest point End Pass type
(mag) Time Alt. Az. Time Alt. Az. Time Alt. Az.
18 Sep 6.7 19:09:25 10° WSW 19:10:47 11° W 19:12:10 10° WNW visible
20 Sep 6.3 04:59:37 10° ENE 05:01:50 13° E 05:04:03 10° ESE visible
21 Sep 6.3 18:56:35 10° WSW 18:59:16 14° W 19:01:59 10° WNW visible
22 Sep 5.9 05:23:36 10° NE 05:27:33 22° E 05:31:30 10° SE visible
24 Sep 6.1 18:44:20 10° SW 18:47:47 18° W 18:51:16 10° NW visible
25 Sep 6.1 05:12:41 10° NE 05:16:06 18° E 05:19:29 10° SE visible
27 Sep 5.3 05:37:16 10° NNE 05:41:45 31° E 05:46:12 10° SSE visible
27 Sep 5.9 18:32:21 10° SW 18:36:19 23° W 18:40:20 10° NW visible
